ISS (ZARYA) 1 25544U 98067A 25261.15495302 .00009099 00000+0 16508-3 0 9994 2 25544 51.6329 206.2777 0004340 352.6018 7.4906 15.50367586529586 CSS (TIANHE) 1 48274U 21035A 25261.12596439 .00029313 00000+0 35912-3 0 9991 2 48274 41.4645 177.1936 0003309 5.6412 354.4463 15.59705520250654 ISS (NAUKA) 1 49044U 21066A 25261.15495302 .00009099 00000+0 16508-3 0 9990 2 49044 51.6329 206.2777 0004340 352.6018 7.4906 15.50367586230441 FREGAT DEB 1 49271U 11037PF 25260.70745937 .00009726 00000+0 17140-1 0 9999 2 49271 51.6372 93.9164 0946010 36.3783 329.7732 12.33149410191317 CSS (WENTIAN) 1 53239U 22085A 25261.12596439 .00029313 00000+0 35912-3 0 9994 2 53239 41.4645 177.1936 0003309 5.6412 354.4463 15.59705520173846 CSS (MENGTIAN) 1 54216U 22143A 25261.12596439 .00029313 00000+0 35912-3 0 9995 2 54216 41.4645 177.1936 0003309 5.6412 354.4463 15.59705520158643 SOYUZ-MS 27 1 63520U 25072A 25261.15495302 .00009099 00000+0 16508-3 0 9996 2 63520 51.6329 206.2777 0004340 352.6018 7.4906 15.50367586 20207 SHENZHOU-20 (SZ-20) 1 63632U 25082A 25261.12596439 .00029313 00000+0 35912-3 0 9992 2 63632 41.4645 177.1936 0003309 5.6412 354.4463 15.59705520237171 PROGRESS-MS 31 1 64751U 25146A 25261.15495302 .00009099 00000+0 16508-3 0 9995 2 64751 51.6329 206.2777 0004340 352.6018 7.4906 15.50367586 6758 TIANZHOU-9 1 64786U 25149A 25261.12596439 .00029313 00000+0 35912-3 0 9997 2 64786 41.4645 177.1936 0003309 5.6412 354.4463 15.59705520 5119 CREW DRAGON 11 1 65077U 25166A 25261.15495302 .00009099 00000+0 16508-3 0 9999 2 65077 51.6329 206.2777 0004340 352.6018 7.4906 15.50367586 2149 DRAGON CRS-33 1 65304U 25186A 25261.15495302 .00009099 00000+0 16508-3 0 9994 2 65304 51.6329 206.2777 0004340 352.6018 7.4906 15.50367586 117 PROGRESS-MS 32 1 65586U 25204A 25261.15495302 .00009099 00000+0 16508-3 0 9997 2 65586 51.6329 206.2777 0004340 352.6018 7.4906 15.50367586 579 CYGNUS NG-23 1 65616U 25208A 25259.28745561 .00104368 14787-4 29556-3 0 9995 2 65616 51.6599 215.5269 0102655 34.2966 326.4610 15.84751915 222